Cedar Island, NC

3:37 PM EDT on September 25, 2016 (GMT -0400)
Piney Island

Weather History for KNBT - December, 2012

Change the Weather History Date:

Monday, December 3, 2012

  Actual Average (KMRH) Record (KMRH)
Temperature  
Mean Temperature 63 °F -  
Max Temperature 73 °F 62 °F 74 °F (1982)
Min Temperature 53 °F 40 °F 28 °F (2008)
Degree Days  
Heating Degree Days 2    
Growing Degree Days 13 (Base 50)    
Moisture  
Dew Point 55 °F    
Average Humidity 81    
Maximum Humidity 100    
Minimum Humidity 53    
Precipitation  
Precipitation 0.00 in - - ()
Sea Level Pressure  
Sea Level Pressure 30.29 in    
Wind  
Wind Speed 7 mph (SW)    
Max Wind Speed 13 mph    
Max Gust Speed 18 mph    
Visibility 9 miles    
Events      
Averages and records for this station are not official NWS values.
T = Trace of Precipitation, MM = Missing Value Source: NWS Daily Summary

Daily Weather History Graph

Daily Weather History Graph

Search for Another Location

Airport or City:

Trip Planner

Search our weather history database for the weather conditions in past years. The results will help you decide how hot, cold, wet, or windy it might be!

Date:

Astronomy

Dec. 03, 2012 Rise Set
Actual Time 6:57 AM EST 4:53 PM EST
Civil Twilight 6:29 AM EST 5:21 PM EST
Nautical Twilight 5:58 AM EST 5:53 PM EST
Astronomical Twilight 5:27 AM EST 6:23 PM EST
Moon 9:32 PM EST (12/3) 10:24 AM EST (12/3)
Length of Visible Light 10h 51m
Length of Day
9h 56m
Waning Gibbous, 78% of the Moon is Illuminated
Dec 3
Waning Gibbous
Dec 6
Last Quarter
Dec 13
New
Dec 20
First Quarter
Dec 28
Full

Hourly Weather History & Observations

Time (EST) Temp. Dew Point Humidity Pressure Visibility Wind Dir Wind Speed Gust Speed Precip Events Conditions
12:56 AM 53.1 °F 48.9 °F 86% 30.30 in 10.0 mi SSW 6.9 mph - N/A   Clear
1:56 AM 54.0 °F 51.1 °F 90% 30.30 in 9.0 mi SSW 5.8 mph - N/A   Clear
2:56 AM 54.0 °F 51.1 °F 90% 30.29 in 8.0 mi SSW 5.8 mph - N/A   Clear
3:56 AM 54.0 °F 52.0 °F 93% 30.29 in 6.0 mi SSW 5.8 mph - N/A   Clear
5:10 AM 55.4 °F 53.6 °F 94% 30.28 in 2.0 mi WSW 3.5 mph - N/A   Clear
5:21 AM 55.4 °F 55.4 °F 100% 30.28 in 6.0 mi SW 5.8 mph - N/A   Partly Cloudy
5:56 AM 55.9 °F 55.0 °F 97% 30.29 in 6.0 mi SSW 5.8 mph - N/A   Clear
6:56 AM 55.9 °F 55.0 °F 97% 30.31 in 7.0 mi SW 4.6 mph - N/A   Scattered Clouds
7:56 AM 57.9 °F 55.9 °F 93% 30.31 in 7.0 mi SW 4.6 mph - N/A   Clear
9:56 AM 66.9 °F 59.0 °F 76% 30.32 in 10.0 mi West 12.7 mph 18.4 mph N/A   Clear
10:56 AM 70.0 °F 57.9 °F 65% 30.31 in 10.0 mi West 12.7 mph - N/A   Clear
11:56 AM 71.1 °F 57.0 °F 61% 30.29 in 10.0 mi West 11.5 mph - N/A   Clear
12:56 PM 73.0 °F 57.9 °F 59% 30.27 in 10.0 mi West 12.7 mph - N/A   Clear
1:56 PM 73.9 °F 57.0 °F 55% 30.26 in 10.0 mi West 12.7 mph - N/A   Clear
2:56 PM 73.9 °F 55.9 °F 53% 30.25 in 10.0 mi WSW 11.5 mph - N/A   Clear
3:56 PM 73.9 °F 55.9 °F 53% 30.25 in 10.0 mi WSW 6.9 mph - N/A   Clear
4:56 PM 66.9 °F 57.0 °F 70% 30.27 in 10.0 mi SSW 6.9 mph - N/A   Clear
5:56 PM 62.1 °F 55.9 °F 80% 30.28 in 10.0 mi SSW 6.9 mph - N/A   Clear
6:56 PM 60.1 °F 55.9 °F 86% 30.29 in 10.0 mi SSW 4.6 mph - N/A   Clear
7:56 PM 57.9 °F 55.0 °F 90% 30.29 in 10.0 mi SSW 6.9 mph - N/A   Clear
8:56 PM 60.1 °F 55.9 °F 86% 30.29 in 10.0 mi SW 6.9 mph - N/A   Clear
9:56 PM 60.1 °F 55.9 °F 86% 30.30 in 10.0 mi SW 6.9 mph - N/A   Clear
10:56 PM 57.9 °F 55.0 °F 90% 30.30 in 10.0 mi SSW 4.6 mph - N/A   Clear
11:56 PM 57.9 °F 55.0 °F 90% 30.31 in 10.0 mi SW 5.8 mph - N/A   Clear